weather.gov     
National Weather Service

Terminal Aerodrome Forecast
NWS Homepage
This page is being discontinued on March 12, 2014.
The same data is available at this site. Please update your bookmarks.
Thank you, and we apologize for the inconvenience.
Please send an email to SR-SRH.Webmaster@noaa.gov with any concerns.


Current Version
Previous Version:    01  02  03  04  05  06  07  08  09  10  11  12  13  14  15  16  17  18  19  20  21  22  23  24  25  
[Printable]
316
FTUS44 KTSA 291100
TAFFSM
TAF
KFSM 291120Z 2912/3012 09005KT P6SM VCSH SCT050 BKN250
     FM291800 21010KT P6SM VCTS SCT050CB BKN150
      TEMPO 2920/2924 5SM -TSRA BKN040CB
     FM300000 17007KT P6SM VCTS SCT050CB BKN150
      TEMPO 3000/3004 5SM -TSRA BKN040CB
     FM300900 10005KT P6SM SCT250=


U.S. Dept. of Commerce
NOAA National Weather Service
1325 East West Highway
Silver Spring, MD 20910
E-mail: w-nws.webmaster@noaa.gov
Page last modified: May 16, 2007
NATIONAL WEATHER SERVICE: for Safety, for Work, for Fun - FOR LIFE